Regional Weather Roundup
Issued by NWS

Home | Current Version | Previous Version | Graphics & Text | Print | Product List | Glossary On
Versions: 1 2 3 4 5 6 7 8 9 10 11 12 13 14 15 16 17 18 19 20 21 22 23 24 25 26 27 28 29 30 31 32 33 34 35 36 37 38 39 40 41 42 43 44 45 46 47 48 49 50
000
ASUS45 KBOU 240607
RWRCO

WEATHER ROUNDUP FOR COLORADO
NATIONAL WEATHER SERVICE DENVER/BOULDER CO
1100 PM MST THU FEB 23 2017

NOTE: "FAIR" INDICATES FEW OR NO CLOUDS BELOW 12000 FEET WITH NO
SIGNIFICANT WEATHER AND/OR OBSTRUCTIONS TO VISIBILITY.

COZ001>005-013-030-031-240700-
...NORTHWEST COLORADO...

CITY           SKY/WX    TMP DP  RH WIND       PRES   REMARKS
CRAIG          CLOUDY    22  16  78 W6        29.74S WCI  14
HAYDEN         CLOUDY    21  16  79 CALM      29.73S
MEEKER         LGT SNOW  22  20  92 S6        29.75S FOG     WCI  14
MOUNT WERNER   NOT AVBL
STEAMBOAT SPGS CLOUDY    19  17  93 CALM      29.72S
WALDEN         NOT AVBL
$$

COZ006>008-011-240700-
...WEST CENTRAL VALLEYS...

CITY           SKY/WX    TMP DP  RH WIND       PRES   REMARKS
GRAND JUNCTION CLOUDY    27  25  92 E5        29.80S WCI  22
MONTROSE       FAIR      22  12  65 S7        29.81S WCI  13
EAGLE          LGT SNOW  21  12  68 CALM      29.78R VSB 1
RIFLE          LGT SNOW  26  24  92 E6        29.79R FOG     WCI  19
DELTA          FAIR      29  16  57 CALM      29.81R
NUCLA          CLOUDY    27  10  50 E8        29.83S WCI  18
$$

COZ017>023-064>068-240700-
...SOUTHWEST COLORADO...

CITY           SKY/WX    TMP DP  RH WIND       PRES   REMARKS
DURANGO        FAIR      22   8  55 CALM      29.78R
CORTEZ         FAIR      22  15  75 CALM      29.80S
PAGOSA SPRINGS FAIR      13   2  63 CALM      29.76S
TELLURIDE      LGT SNOW  12   8  85 SE3       29.76S
WOLF CREEK PAS FAIR       1  -6  71 SW6       29.69S WCI -10
$$

COZ009-010-012-014-032>034-037-058>063-240700-
...CENTRAL COLORADO...

CITY           SKY/WX    TMP DP  RH WIND       PRES   REMARKS
ASPEN          CLOUDY    14   6  70 S7        29.70S WCI   4
BUENA VISTA    FAIR      20   2  45 SW9G18    29.70S WCI   9
COPPER MTN     LGT SNOW   5  -2  72 MISG      29.58S
BERTHOUD PASS  CLOUDY    -2 -13  60 NW20      29.53F HAZE    WCI -25
COTTONWOOD PAS CLOUDY    16   0  48 W20G35    29.65S WCI  -1
GUNNISON       FAIR      12   5  73 CALM      29.76R
KREMMLING      CLOUDY    21  16  79 N5        29.72S WCI  15
LEADVILLE      NOT AVBL
MONARCH PASS   CLOUDY     3  -2  78 W22       29.70S WCI -19
SALIDA         FAIR      20   6  53 W8        29.80S WCI  11
SUNLIGHT       NOT AVBL
WILKERSON PASS FAIR       3  -4  72 SW8       29.62S WCI -10
$$

COZ069>075-240700-
...SAN LUIS VALLEY/SANGRE DE CRISTO MOUNTAINS...

CITY           SKY/WX    TMP DP  RH WIND       PRES   REMARKS
ALAMOSA        FAIR      19   6  57 CALM      29.73S
LA VETA PASS   FAIR      12   1  62 SW14G24   29.66R WCI  -3
SAGUACHE       FAIR      14   5  67 N10       29.74S WCI   1
$$

COZ035-036-038>040-240700-
...NORTHERN COLORADO FRONT RANGE...

CITY           SKY/WX    TMP DP  RH WIND       PRES   REMARKS
DENVER INTL AP FLURRIES  19  13  77 N9        29.85R WCI   8
DMNS CITY PARK   N/A     19  13  76 N5        29.85F WCI  12
AURORA         FLURRIES  17  15  90 NW10      29.84S WCI   5
FRONT RANGE AP FLURRIES  21  18  86 N9        29.84F WCI  11
ERIE MUNI ARPT FLURRIES  21  17  84 CALM      29.87S
BOULDER MUN AP LGT SNOW  19  19 100 CALM      29.86S
CENTENNIAL     LGT SNOW  17  14  88 N13       29.82F FOG     WCI   4
BROOMFIELD     LGT SNOW  19  18  93 NW5       29.85S WCI  13
FORT COLLINS   MOCLDY    21  14  74 N13       29.87F WCI   9
LONGMONT       CLOUDY    24  16  71 NW3       29.89S
$$

COZ041-046-047-076>085-087-088-240700-
...PIKES PEAK/PALMER DIVIDE AND SOUTHERN FOOTHILLS...

CITY           SKY/WX    TMP DP  RH WIND       PRES   REMARKS
COLO. SPRINGS  FAIR      19   9  65 N23G32    29.73S WCI   2
A. F. ACADEMY  MIX PCPN  15   9  76 N20G28    29.74S WCI  -3
SCHRIEVER AFB  FAIR      15   9  78 N13G22    29.75S WCI   1
ELLICOTT       FAIR     N/A N/A N/A N23G32      N/A
FALCON         FLURRIES  14   8  77 N20G29    29.72S WCI  -3
FORT CARSON    FAIR      19  10  67 N14G22    29.75R WCI   5
LIMON          CLOUDY    18  15  88 NW22G31   29.79S WCI   1
MONUMENT HILL  LGT SNOW  10   9  92 NW7       29.77S WCI   0
TRINIDAD       CLOUDY    26  20  77 NE10      29.77R WCI  16
$$

COZ042>045-048>051-090-091-240700-
...NORTHEAST COLORADO...

CITY           SKY/WX    TMP DP  RH WIND       PRES   REMARKS
GREELEY ARPT   FLURRIES  21  18  88 NW8       29.89S WCI  11
AKRON          LGT SNOW  19  16  88 N12       29.82R FOG     WCI   7
BURLINGTON     CLOUDY    23  18  81 N18G28    29.78R WCI   9
WRAY           NOT AVBL
STERLING       LGT SNOW  23  21  93 N10       29.85S WCI  12
HOLYOKE        FLURRIES  25  21  86 N10       29.83S WCI  15
FORT MORGAN    LGT SNOW  21  18  89 NW9       29.86S WCI  10
$$

COZ086-089-092>099-240700-
...SOUTHEAST COLORADO...

CITY           SKY/WX    TMP DP  RH WIND       PRES   REMARKS
PUEBLO         FAIR      25  13  60 VRB5      29.79R WCI  19
LA JUNTA       FAIR      26  16  65 N17G23    29.82R WCI  13
LAMAR          CLOUDY    28  17  63 N16G26    29.80S WCI  16
SPRINGFIELD      N/A     25  20  81 N22       29.75R WCI  10
$$



USA.gov is the U.S. government's official web portal to all federal, state and local government web resources and services.